TimeMDT,TemperatureF,Dew PointF,Humidity,Sea Level PressureIn,VisibilityMPH,Wind Direction,Wind SpeedMPH,Gust SpeedMPH,PrecipitationIn,Events,Conditions,WindDirDegrees,DateUTC
12:53 AM,39.9,34.0,79,30.19,10.0,Calm,Calm,-,N/A,,Clear,0,2013-09-20 06:53:00
1:53 AM,37.9,34.0,86,30.20,10.0,West,3.5,-,N/A,,Clear,260,2013-09-20 07:53:00
2:53 AM,35.1,32.0,89,30.20,10.0,Calm,Calm,-,N/A,,Clear,0,2013-09-20 08:53:00
3:53 AM,36.0,33.1,89,30.19,10.0,SSW,4.6,-,N/A,,Clear,210,2013-09-20 09:53:00
4:53 AM,35.1,32.0,89,30.18,10.0,Calm,Calm,-,N/A,,Clear,0,2013-09-20 10:53:00
5:53 AM,34.0,30.0,85,30.19,10.0,Calm,Calm,-,N/A,,Clear,0,2013-09-20 11:53:00
6:53 AM,34.0,30.9,89,30.22,10.0,Calm,Calm,-,N/A,,Clear,0,2013-09-20 12:53:00
7:53 AM,42.1,37.0,82,30.21,10.0,Calm,Calm,-,N/A,,Clear,0,2013-09-20 13:53:00
8:53 AM,52.0,39.0,61,30.18,10.0,Calm,Calm,-,N/A,,Clear,0,2013-09-20 14:53:00
9:53 AM,57.9,39.9,51,30.17,10.0,Calm,Calm,-,N/A,,Clear,0,2013-09-20 15:53:00
10:53 AM,64.0,37.9,38,30.14,10.0,Calm,Calm,-,N/A,,Clear,0,2013-09-20 16:53:00
11:53 AM,66.9,37.0,33,30.11,10.0,Calm,Calm,-,N/A,,Clear,0,2013-09-20 17:53:00
12:53 PM,70.0,37.0,30,30.08,10.0,Calm,Calm,-,N/A,,Clear,0,2013-09-20 18:53:00
1:53 PM,72.0,35.1,26,30.05,10.0,Variable,6.9,-,N/A,,Clear,0,2013-09-20 19:53:00
2:53 PM,73.9,35.1,24,30.02,10.0,NNE,4.6,-,N/A,,Clear,30,2013-09-20 20:53:00
3:53 PM,75.9,34.0,22,29.99,10.0,Calm,Calm,-,N/A,,Clear,0,2013-09-20 21:53:00
4:53 PM,75.9,33.1,21,29.98,10.0,Calm,Calm,-,N/A,,Clear,0,2013-09-20 22:53:00
5:53 PM,75.9,33.1,21,29.97,10.0,NE,3.5,-,N/A,,Clear,50,2013-09-20 23:53:00
6:53 PM,66.9,34.0,30,29.98,10.0,East,8.1,-,N/A,,Clear,100,2013-09-21 00:53:00
7:53 PM,57.9,33.1,39,29.99,10.0,SE,4.6,-,N/A,,Clear,140,2013-09-21 01:53:00
8:53 PM,55.0,32.0,42,29.98,10.0,SE,4.6,-,N/A,,Clear,140,2013-09-21 02:53:00
9:53 PM,51.1,30.9,46,29.98,10.0,SE,6.9,-,N/A,,Clear,130,2013-09-21 03:53:00
10:53 PM,46.9,30.9,54,29.97,10.0,WSW,3.5,-,N/A,,Clear,240,2013-09-21 04:53:00
11:53 PM,43.0,32.0,65,29.96,10.0,Calm,Calm,-,N/A,,Clear,0,2013-09-21 05:53:00